Location: G�migny
(47.9646°N, 1.6950°E)
Time: 11:55:21
(UTC+00:00)

H-2A R/B - Pass Details

Date: 23 October 2019
Orbit: 733 x 837 km, 98.3° (Epoch: 21 November)

Event Time Altitude Azimuth Distance (km) Brightness Sun altitude
Exits shadow 17:40:41 10° 66° (ENE) 2,449 4.0 -9.0°
Reaches altitude 10° 17:40:46 10° 66° (ENE) 2,442 4.0 -9.0°
Maximum altitude 17:42:11 11° 50° (NE) 2,374 4.0 -9.3°
Drops below altitude 10° 17:43:36 10° 35° (NE) 2,454 4.2 -9.5°
Sets 17:47:58 0° 2° (N) 3,401 5.3 -10.2°
